Anchorage, AK

12:29 AM AKST on February 13, 2016 (GMT -0900)
Merrill

Weather History for PAMR - December, 2012

Change the Weather History Date:

Monday, December 31, 2012

  Actual Average (PANC) Record (PANC)
Temperature  
Mean Temperature 38 °F 18 °F  
Max Temperature 46 °F 24 °F 43 °F (2014)
Min Temperature 30 °F 12 °F -25 °F (1964)
Degree Days  
Heating Degree Days 27    
Month to date heating degree days  
Since 1 July heating degree days  
Cooling Degree Days 0    
Month to date cooling degree days  
Year to date cooling degree days  
Moisture  
Dew Point 24 °F    
Average Humidity 62    
Maximum Humidity 85    
Minimum Humidity 38    
Precipitation  
Precipitation 0.00 in 0.03 in 0.32 in (1980)
Month to date precipitation 1.11  
Year to date precipitation 16.58  
Snow  
Snow 0.00 in 0.50 in 4.20 in (1985)
Month to date snowfall 16.7  
Since 1 July snowfall 38.1  
Snow Depth -    
Sea Level Pressure  
Sea Level Pressure 29.65 in    
Wind  
Wind Speed 7 mph (NNW)    
Max Wind Speed 16 mph    
Max Gust Speed 28 mph    
Visibility 10 miles    
Events Rain    
T = Trace of Precipitation, MM = Missing Value Source: NWS Daily Summary

Daily Weather History Graph

Daily Weather History Graph

Search for Another Location

Airport or City:

Trip Planner

Search our weather history database for the weather conditions in past years. The results will help you decide how hot, cold, wet, or windy it might be!

Date:

Astronomy

Dec. 31, 2012 Rise Set
Actual Time 10:13 AM AKST 3:52 PM AKST
Civil Twilight 9:12 AM AKST 4:53 PM AKST
Nautical Twilight 8:13 AM AKST 5:52 PM AKST
Astronomical Twilight 7:20 AM AKST 6:45 PM AKST
Moon 8:48 PM AKST (12/31) 10:51 AM AKST (12/31)
Length of Visible Light 7h 40m
Length of Day
5h 38m
Waning Gibbous, 89% of the Moon is Illuminated
Dec 31
Waning Gibbous
Jan 4
Last Quarter
Jan 11
New
Jan 18
First Quarter
Jan 26
Full

Hourly Weather History & Observations

Time (AKST) Temp. Windchill Dew Point Humidity Pressure Visibility Wind Dir Wind Speed Gust Speed Precip Events Conditions
12:53 AM 46.0 °F 39.3 °F 24.1 °F 42% 29.43 in 10.0 mi SSE 16.1 mph 27.6 mph N/A   Mostly Cloudy
1:53 AM 45.0 °F 40.6 °F 23.0 °F 42% 29.46 in 10.0 mi South 8.1 mph 17.3 mph N/A   Mostly Cloudy
3:53 AM 42.1 °F - 21.0 °F 43% 29.53 in 10.0 mi Calm Calm - N/A   Scattered Clouds
4:53 AM 44.1 °F 39.0 °F 19.9 °F 38% 29.54 in 10.0 mi South 9.2 mph - N/A   Mostly Cloudy
5:53 AM 45.0 °F 38.9 °F 21.0 °F 39% 29.57 in 10.0 mi SE 12.7 mph 21.9 mph N/A   Mostly Cloudy
6:53 AM 45.0 °F 41.2 °F 21.0 °F 39% 29.60 in 10.0 mi Variable 6.9 mph - N/A   Clear
7:53 AM 43.0 °F 41.3 °F 21.0 °F 42% 29.64 in 10.0 mi NNW 3.5 mph - N/A   Clear
8:53 AM 37.0 °F 34.5 °F 21.9 °F 54% 29.68 in 10.0 mi NNE 3.5 mph - N/A   Clear
9:53 AM 37.9 °F 33.5 °F 21.9 °F 53% 29.70 in 10.0 mi WNW 5.8 mph - N/A   Clear
10:53 AM 36.0 °F - 21.9 °F 57% 29.73 in 10.0 mi Calm Calm - N/A   Clear
11:53 AM 36.0 °F 32.1 °F 23.0 °F 59% 29.76 in 10.0 mi North 4.6 mph - N/A   Clear
12:53 PM 37.0 °F 33.3 °F 25.0 °F 62% 29.76 in 10.0 mi NNW 4.6 mph - N/A   Clear
1:53 PM 33.1 °F 28.7 °F 25.0 °F 72% 29.76 in 10.0 mi WSW 4.6 mph - N/A   Clear
2:53 PM 33.1 °F 28.7 °F 25.0 °F 72% 29.77 in 10.0 mi NNW 4.6 mph - N/A   Clear
3:53 PM 30.9 °F 27.5 °F 25.0 °F 79% 29.74 in 10.0 mi NNE 3.5 mph - N/A   Scattered Clouds
4:53 PM 32.0 °F - 26.1 °F 79% 29.73 in 10.0 mi Calm Calm - N/A   Mostly Cloudy
5:53 PM 30.9 °F - 26.1 °F 82% 29.69 in 10.0 mi Calm Calm - N/A   Scattered Clouds
6:53 PM 30.9 °F 23.5 °F 26.1 °F 82% 29.67 in 10.0 mi WNW 8.1 mph - N/A   Partly Cloudy
7:53 PM 30.0 °F 24.1 °F 26.1 °F 85% 29.67 in 10.0 mi NW 5.8 mph - N/A   Scattered Clouds
8:53 PM 30.0 °F 25.2 °F 25.0 °F 82% 29.63 in 10.0 mi North 4.6 mph - N/A   Overcast
9:53 PM 32.0 °F - 26.1 °F 79% 29.63 in 10.0 mi Calm Calm - N/A   Overcast
10:53 PM 37.9 °F 32.1 °F 30.9 °F 76% 29.60 in 10.0 mi NNE 8.1 mph - N/A Rain Light Rain
11:53 PM 39.0 °F 33.4 °F 30.9 °F 73% 29.56 in 10.0 mi NNE 8.1 mph - N/A   Overcast